Stations météo

réclame
Mon MeteoGroup
Bückeburg, Allemagne (10335): Température de l'air & dewpoint: 02.07.2020 15:00:00 - 08.07.2020 15:00:00 (CEST)Bückeburg, Allemagne (10335): Vitesse du vent: 02.07.2020 15:00:00 - 08.07.2020 15:00:00 (CEST)Bückeburg, Allemagne (10335): Direction du vent: 02.07.2020 15:00:00 - 08.07.2020 15:00:00 (CEST)Bückeburg, Allemagne (10335): reduced air pressure: 02.07.2020 15:00:00 - 08.07.2020 15:00:00 (CEST)Bückeburg, Allemagne (10335): visibility: 02.07.2020 15:00:00 - 08.07.2020 15:00:00 (CEST)
Date & Time tt [°C] td [°C] ff [km/h] ff [knt] dd ppp [hPa] vv [km]
08.07.2020 15:00:00 - - - - - - -
08.07.2020 14:00:00 14,1 12,6 9 5 W 1015,8 10
08.07.2020 13:00:00 13,9 12,1 9 5 W 1015,7 7
08.07.2020 12:00:00 13,5 12,0 2 1 ENE 1015,5 3,5
08.07.2020 11:00:00 13,3 11,6 4 2 NNE 1015,3 9
08.07.2020 10:00:00 12,9 11,5 4 2 E 1015,1 6
08.07.2020 09:00:00 13,0 11,4 4 2 NNW 1015,1 15
08.07.2020 08:00:00 12,6 10,7 4 2 W 1015,1 18
08.07.2020 07:00:00 13,0 10,7 4 2 SSW 1015,0 25
08.07.2020 06:00:00 12,8 10,0 4 2 WNW 1015,0 30
08.07.2020 05:00:00 12,9 9,6 4 2 N 1015,1 25
08.07.2020 04:00:00 12,7 10,1 7 4 SW 1015,6 25
08.07.2020 03:00:00 13,0 9,8 11 6 SW 1015,9 25
08.07.2020 02:00:00 12,5 10,2 7 4 SSW 1016,4 25
08.07.2020 01:00:00 13,0 10,3 7 4 SSW 1016,7 25
08.07.2020 00:00:00 13,6 10,2 4 2 W 1017,2 25
07.07.2020 23:00:00 13,7 10,6 7 4 W 1017,1 30
07.07.2020 22:00:00 14,2 11,1 7 4 W 1017,0 35
07.07.2020 21:00:00 14,9 11,5 11 6 W 1017,3 30
07.07.2020 20:00:00 14,5 12,5 4 2 W 1017,2 30
07.07.2020 19:00:00 15,9 11,4 11 6 WSW 1017,2 20
07.07.2020 18:00:00 14,9 11,7 11 6 SW 1017,5 35
07.07.2020 17:00:00 15,5 10,5 32 18 W 1018,1 10
07.07.2020 16:00:00 18,9 8,0 22 12 WSW 1017,2 40
07.07.2020 15:00:00 19,4 7,9 22 12 WSW 1017,6 40
07.07.2020 14:00:00 18,7 7,9 25 14 WSW 1018,4 40
07.07.2020 13:00:00 17,8 8,6 18 10 W 1018,9 35
07.07.2020 12:00:00 16,9 8,5 14 8 SW 1019,4 35
07.07.2020 11:00:00 16,0 8,3 18 10 WSW 1019,8 35
07.07.2020 10:00:00 14,8 8,4 18 10 WSW 1020,2 35
07.07.2020 09:00:00 13,8 8,7 18 10 WSW 1020,3 35
07.07.2020 08:00:00 12,4 9,4 7 4 SW 1020,5 30
07.07.2020 07:00:00 11,6 9,3 11 6 SW 1020,3 25
07.07.2020 06:00:00 9,9 8,5 4 2 SW 1020,2 20
07.07.2020 05:00:00 9,7 8,2 4 2 SW 1020,1 25
07.07.2020 04:00:00 10,0 8,4 4 2 SW 1020,1 25
07.07.2020 03:00:00 11,5 9,6 7 4 WSW 1020,1 25
07.07.2020 02:00:00 12,3 9,9 7 4 WSW 1019,9 25
07.07.2020 01:00:00 13,1 9,9 11 6 W 1019,6 25
07.07.2020 00:00:00 13,1 10,1 7 4 SW 1019,2 25
06.07.2020 23:00:00 13,5 10,6 7 4 SW 1018,7 25
06.07.2020 22:00:00 13,6 9,9 14 8 W 1018,2 25
06.07.2020 21:00:00 13,8 9,8 22 12 WSW 1017,3 20
06.07.2020 20:00:00 14,4 11,4 14 8 SW 1016,8 13
06.07.2020 19:00:00 13,3 11,0 22 12 WSW 1016,2 8
06.07.2020 18:00:00 16,2 10,1 32 18 W 1015,4 35
06.07.2020 17:00:00 15,1 10,6 36 19 WNW 1015,0 35
06.07.2020 16:00:00 16,2 9,6 34 18 W 1013,9 7
06.07.2020 15:00:00 17,5 9,4 36 19 W 1013,2 35
06.07.2020 14:00:00 15,8 10,4 29 16 WSW 1013,0 35
06.07.2020 13:00:00 14,0 11,0 18 10 W 1012,7 25
06.07.2020 12:00:00 15,6 10,9 26 14 W 1011,7 2,5
06.07.2020 11:00:00 16,4 8,2 29 16 W 1011,0 20
06.07.2020 10:00:00 16,0 9,1 29 16 W 1010,6 30
06.07.2020 09:00:00 15,3 9,4 25 14 W 1010,5 30
06.07.2020 08:00:00 14,9 9,7 22 12 W 1010,2 30
06.07.2020 07:00:00 14,1 9,3 18 10 WSW 1009,8 30
06.07.2020 06:00:00 14,1 9,0 22 12 WSW 1009,7 30
06.07.2020 05:00:00 14,7 8,9 25 14 WSW 1009,1 40
06.07.2020 04:00:00 15,7 9,6 29 16 WSW 1009,1 40
06.07.2020 03:00:00 16,2 9,7 22 12 WSW 1009,1 40
06.07.2020 02:00:00 16,4 10,3 22 12 WSW 1009,2 40
06.07.2020 01:00:00 16,7 11,5 18 10 WSW 1008,9 40
06.07.2020 00:00:00 16,9 11,8 18 10 WSW 1008,8 40
05.07.2020 23:00:00 18,3 11,8 18 10 WSW 1008,8 40
05.07.2020 22:00:00 20,2 12,2 14 8 WSW 1008,6 40
05.07.2020 21:00:00 21,2 12,7 25 14 WSW 1008,2 40
05.07.2020 20:00:00 22,7 13,3 25 14 WSW 1008,2 40
05.07.2020 19:00:00 22,1 15,4 25 14 WSW 1008,4 30
05.07.2020 18:00:00 21,8 15,7 - - - 1008,6 10
05.07.2020 17:00:00 21,1 17,7 - - - 1009,0 10
05.07.2020 16:00:00 20,9 17,1 - - - 1008,8 8
05.07.2020 15:00:00 21,0 17,6 - - - 1008,9 10
05.07.2020 14:00:00 19,7 17,6 - - - 1009,0 4,9
05.07.2020 13:00:00 21,0 17,2 - - - 1008,6 9
05.07.2020 12:00:00 21,0 16,6 - - - 1008,8 7
05.07.2020 11:00:00 20,4 16,3 - - - 1009,0 10
05.07.2020 10:00:00 20,4 16,6 - - - 1008,5 10
05.07.2020 09:00:00 18,9 16,7 - - - 1009,1 11
05.07.2020 08:00:00 18,5 16,8 - - - 1008,9 3,4
05.07.2020 07:00:00 18,2 16,8 - - - 1009,2 3,9
05.07.2020 06:00:00 18,1 17,0 - - - 1009,3 5
05.07.2020 05:00:00 19,1 16,3 - - - 1009,3 11
05.07.2020 04:00:00 18,5 16,6 - - - 1009,6 5
05.07.2020 03:00:00 19,1 16,0 - - - 1010,2 12
05.07.2020 02:00:00 19,1 15,9 - - - 1010,6 12
05.07.2020 01:00:00 19,2 15,7 - - - 1011,1 11
05.07.2020 00:00:00 19,4 15,3 - - - 1011,6 12
04.07.2020 23:00:00 19,8 15,0 - - - 1012,1 12
04.07.2020 22:00:00 19,7 15,3 - - - 1012,1 13
04.07.2020 21:00:00 20,1 14,7 - - - 1012,2 13
04.07.2020 20:00:00 19,4 14,9 - - - 1012,6 12
04.07.2020 19:00:00 20,5 14,1 - - - 1012,7 12
04.07.2020 18:00:00 20,9 14,0 - - - 1012,4 12
04.07.2020 17:00:00 20,3 14,6 - - - 1012,6 12
04.07.2020 16:00:00 21,1 12,7 - - - 1012,4 12
04.07.2020 15:00:00 21,4 11,5 - - - 1012,2 12
04.07.2020 14:00:00 21,5 12,0 - - - 1012,5 11
04.07.2020 13:00:00 20,5 11,4 - - - 1013,3 11
04.07.2020 12:00:00 20,0 12,0 - - - 1013,3 12
04.07.2020 11:00:00 18,4 12,0 - - - 1013,8 12
04.07.2020 10:00:00 17,0 12,5 - - - 1014,2 10
04.07.2020 09:00:00 16,7 11,6 - - - 1014,5 13
04.07.2020 08:00:00 16,4 11,0 - - - 1014,4 14
04.07.2020 07:00:00 16,6 10,0 - - - 1014,6 15
04.07.2020 06:00:00 16,5 9,9 - - - 1014,7 16
04.07.2020 05:00:00 16,6 10,0 - - - 1014,5 15
04.07.2020 04:00:00 17,0 10,1 - - - 1015,0 15
04.07.2020 03:00:00 16,9 11,1 - - - 1015,1 15
04.07.2020 02:00:00 16,9 11,5 - - - 1015,5 14
04.07.2020 01:00:00 17,2 11,6 - - - 1015,6 13
04.07.2020 00:00:00 18,0 11,6 - - - 1015,6 15
03.07.2020 23:00:00 17,9 11,7 - - - 1015,7 14
03.07.2020 22:00:00 18,3 11,9 - - - 1015,6 14
03.07.2020 21:00:00 19,4 12,7 - - - 1015,5 13
03.07.2020 20:00:00 19,9 12,3 - - - 1015,3 12
03.07.2020 19:00:00 20,5 12,0 - - - 1015,3 11
03.07.2020 18:00:00 21,0 11,8 29 16 SW 1015,8 35
03.07.2020 17:00:00 20,2 11,3 32 18 SW 1015,9 35
03.07.2020 16:00:00 19,3 11,5 29 16 WSW 1016,3 35
03.07.2020 15:00:00 19,2 12,2 22 12 NNE 1016,4 30
03.07.2020 14:00:00 18,6 11,3 25 14 W 1016,8 30
03.07.2020 13:00:00 18,0 11,7 22 12 W 1016,6 25
03.07.2020 12:00:00 17,6 12,7 22 12 SW 1016,4 25
03.07.2020 11:00:00 15,8 12,9 14 8 SW 1016,3 12
03.07.2020 10:00:00 15,6 12,6 18 10 SW 1016,1 12
03.07.2020 09:00:00 15,7 12,7 18 10 SW 1015,6 14
03.07.2020 08:00:00 14,7 12,7 18 10 SSW 1015,5 12
03.07.2020 07:00:00 14,1 12,3 11 6 SW 1015,0 13
03.07.2020 06:00:00 13,9 12,4 - - - 1014,9 10
03.07.2020 05:00:00 13,6 12,7 - - - 1014,3 7
03.07.2020 04:00:00 14,4 13,5 - - - 1014,2 5
03.07.2020 03:00:00 13,9 13,1 - - - 1014,0 5
03.07.2020 02:00:00 14,3 13,6 - - - 1014,0 6
03.07.2020 01:00:00 15,2 14,1 - - - 1013,5 6
03.07.2020 00:00:00 15,4 14,1 13 7 W 1013,1 6
02.07.2020 23:00:00 14,9 14,1 11 6 SW 1012,8 15
02.07.2020 22:00:00 15,7 13,5 14 8 SSW 1012,3 11
02.07.2020 21:00:00 16,3 14,1 4 2 SSW 1011,7 30
02.07.2020 20:00:00 16,4 13,9 4 2 S 1011,2 40
02.07.2020 19:00:00 16,2 13,9 4 2 SSW 1011,0 30
02.07.2020 18:00:00 19,3 14,6 14 8 WSW 1010,4 30
02.07.2020 17:00:00 18,7 15,6 18 10 WSW 1010,3 30
02.07.2020 16:00:00 20,8 12,6 22 12 SW 1009,9 15
02.07.2020 15:00:00 21,4 12,4 18 10 WSW 1009,8 40

tt = Température de l'air
td = dewpoint
ff = Vitesse du vent
dd = Direction du vent
ppp = reduced air pressure
vv = visibility

stations d'obs. à proximité